Overview Statistics Trail Chart Weather Telemetry Raw packets
 

This is the latest recevied weather packets stored in our database for station/object JL1LCW-13. If no packets are shown the sender has not sent any weather packets the latest 10 day(s).

<< 3 4 5 6 7 8 9 >>
Time Temp. Humidity Pressure Rain* Wind** Luminosity Snow
1788447840 22.22° C 99% 1012 hPa 0 mm - - -
1788446939 22.22° C 99% 1012 hPa 0 mm - - -
1788444239 22.22° C 99% 1012 hPa 0 mm - - -
1788443341 22.22° C 99% 1012 hPa 0 mm - - -
1788440639 22.22° C 99% 1013 hPa 0 mm - - -
1788439740 22.22° C 99% 1013 hPa 0 mm - - -
1788437039 22.22° C 99% 1014 hPa 0 mm - - -
1788436141 22.22° C 99% 1014 hPa 0 mm - - -
1788433440 22.78° C 99% 1013 hPa 0 mm - - -
1788432539 22.78° C 99% 1013 hPa 0 mm - - -
1788429839 22.78° C 99% 1013 hPa 0 mm - - -
1788428941 22.78° C 99% 1013 hPa 0 mm - - -
1788426241 22.78° C 99% 1014 hPa 0 mm - - -
1788425340 22.78° C 99% 1014 hPa 1.02 mm - - -
1788422639 25° C 99% 1014 hPa 4.32 mm - - -
1788421751 29.44° C 99% 1014 hPa 3.3 mm - - -
1788419039 30° C 96% 1013 hPa 0 mm - - -
1788418159 31.11° C 92% 1013 hPa 0 mm - - -
1788415439 32.22° C 87% 1013 hPa 0 mm - - -
1788414558 31.11° C 89% 1013 hPa 0 mm - - -
1788411840 32.22° C 83% 1013 hPa 0 mm - - -
1788410939 32.22° C 85% 1013 hPa 0 mm - - -
1788408239 32.22° C 86% 1013 hPa 0 mm - - -
1788407339 31.11° C 88% 1013 hPa 0 mm - - -
1788404640 31.11° C 87% 1013 hPa 0 mm - - -

* Rain latest hour (hover to see other rain measurements)
** Current wind speed in m/s (hover to see current wind gust speed)